Precipitable_Water
0.78 0.78 0.81 0.88 0.92 0.91 0.99 1.04 1.00 0.81 0.82 0.89 0.95 1.06 1.12 1.14 1.12 1.09 1.11 1.11 1.18 1.12 1.08 1.10 1.15 1.19 1.09 1.05 1.08 1.07 1.00 1.00 1.02
0.85 0.83 0.83 0.84 0.85 0.88 0.92 0.94 0.96 1.03 1.08 1.09 1.10 1.09 1.09 1.05 1.08 1.10 1.15 1.20 1.19 1.29 1.24 1.26 1.33 1.32 1.37 1.36 1.27 1.29 1.26 1.14 1.08
0.94 0.94 0.93 0.95 0.97 0.99 1.01 1.01 1.04 1.06 1.08 1.08 1.08 1.07 1.10 1.09 1.05 1.06 1.09 1.11 1.12 1.17 1.15 1.21 1.29 1.32 1.32 1.33 1.43 1.45 1.48 1.46 1.46
1.01 1.01 1.03 1.05 1.08 1.10 1.10 1.10 1.11 1.11 1.07 1.04 1.03 1.02 1.04 1.05 1.03 1.06 1.08 1.12 1.08 1.05 1.14 1.14 1.11 1.16 1.14 1.12 1.15 1.22 1.27 1.32 1.37
1.11 1.06 1.08 1.12 1.14 1.16 1.16 1.16 1.14 1.09 1.03 0.98 0.95 0.95 1.00 0.99 0.98 1.00 1.03 1.08 1.01 1.08 1.05 1.00 0.95 0.96 0.95 0.94 0.94 0.94 0.95 1.02 1.11
1.21 1.15 1.10 1.17 1.18 1.17 1.16 1.15 1.12 1.02 0.95 0.93 0.88 0.90 0.91 0.89 0.90 0.92 0.93 0.97 1.01 1.01 0.96 0.91 0.92 0.91 0.84 0.81 0.79 0.78 0.80 0.81 0.82
1.27 1.20 1.13 1.19 1.22 1.22 1.21 1.16 1.08 1.03 0.97 0.92 0.84 0.79 0.82 0.82 0.81 0.82 0.86 0.86 1.00 0.94 0.87 0.83 0.83 0.82 0.76 0.71 0.67 0.66 0.67 0.67 0.66
1.28 1.23 1.13 1.16 1.20 1.22 1.22 1.10 1.06 1.01 0.96 0.85 0.75 0.70 0.72 0.72 0.70 0.70 0.69 0.73 0.93 0.87 0.78 0.72 0.69 0.69 0.67 0.65 0.62 0.60 0.59 0.59 0.58
1.20 1.23 1.17 1.09 1.15 1.15 1.12 1.07 1.03 0.95 0.90 0.79 0.65 0.63 0.64 0.63 0.63 0.67 0.66 0.77 0.85 0.77 0.69 0.63 0.59 0.58 0.58 0.57 0.55 0.55 0.53 0.53 0.52
1.22 1.24 1.14 1.11 1.17 1.13 1.06 1.02 0.95 0.90 0.86 0.69 0.62 0.60 0.60 0.58 0.59 0.59 0.57 0.63 0.69 0.66 0.61 0.56 0.54 0.52 0.52 0.56 0.58 0.57 0.55 0.53 0.52
1.20 1.21 1.12 1.20 1.23 1.16 1.08 0.99 0.91 0.87 0.77 0.63 0.61 0.59 0.57 0.58 0.57 0.55 0.56 0.58 0.59 0.57 0.54 0.50 0.48 0.48 0.50 0.52 0.54 0.55 0.55 0.54 0.53
1.18 1.12 1.14 1.22 1.25 1.13 1.01 0.91 0.88 0.85 0.66 0.60 0.60 0.58 0.58 0.59 0.59 0.57 0.55 0.56 0.52 0.49 0.49 0.47 0.47 0.46 0.47 0.51 0.53 0.54 0.55 0.55 0.55
1.14 1.09 1.16 1.21 1.16 1.03 0.94 0.87 0.81 0.74 0.56 0.57 0.57 0.57 0.57 0.58 0.60 0.58 0.55 0.52 0.52 0.52 0.47 0.45 0.44 0.44 0.46 0.48 0.50 0.53 0.52 0.53 0.54
1.12 1.14 1.16 1.16 1.05 0.97 0.95 0.90 0.89 0.73 0.64 0.61 0.59 0.58 0.57 0.55 0.58 0.60 0.58 0.56 0.55 0.52 0.51 0.49 0.45 0.43 0.43 0.44 0.47 0.48 0.50 0.52 0.52
1.12 1.13 1.13 1.10 1.05 1.01 0.99 0.98 0.91 0.68 0.67 0.66 0.64 0.63 0.61 0.61 0.61 0.61 0.61 0.60 0.57 0.54 0.52 0.49 0.46 0.45 0.44 0.44 0.44 0.47 0.49 0.51 0.53
1.14 1.13 1.12 1.10 1.08 1.05 1.00 0.95 0.85 0.74 0.74 0.73 0.72 0.68 0.65 0.65 0.64 0.64 0.61 0.58 0.56 0.53 0.50 0.47 0.45 0.43 0.43 0.42 0.42 0.43 0.44 0.47 0.48
1.25 1.17 1.13 1.13 1.09 1.05 1.01 0.97 0.89 0.81 0.79 0.74 0.72 0.63 0.65 0.66 0.66 0.65 0.61 0.58 0.55 0.52 0.50 0.48 0.46 0.44 0.42 0.40 0.41 0.39 0.39 0.40 0.43
1.28 1.23 1.19 1.14 1.12 1.07 1.03 0.97 0.89 0.81 0.79 0.77 0.71 0.63 0.59 0.62 0.63 0.62 0.60 0.56 0.53 0.50 0.49 0.46 0.45 0.42 0.40 0.38 0.36 0.35 0.34 0.36 0.40
1.30 1.24 1.20 1.17 1.15 1.09 1.05 0.98 0.90 0.88 0.78 0.78 0.73 0.72 0.66 0.58 0.54 0.58 0.59 0.56 0.52 0.50 0.48 0.46 0.45 0.42 0.38 0.37 0.35 0.35 0.35 0.37 0.40
1.30 1.26 1.20 1.14 1.10 1.08 1.04 0.99 0.92 0.87 0.80 0.79 0.76 0.71 0.63 0.61 0.58 0.54 0.54 0.54 0.52 0.50 0.48 0.46 0.44 0.40 0.37 0.34 0.35 0.36 0.37 0.39 0.41
Wind_Speed
5 5 6 6 7 8 8 8 8 8 8 8 8 8 9 9 10 10 10 11 11 12 12 12 12 12 12 11 11 12 12 12 12
5 5 5 5 6 7 7 7 7 7 8 8 8 9 9 9 9 9 10 10 11 11 11 11 10 11 10 12 12 13 14 13 12
6 5 5 5 6 6 6 6 7 7 8 8 9 9 9 9 9 10 11 11 12 12 13 12 11 11 11 10 10 10 10 11 12
7 6 6 6 6 6 7 7 7 8 8 9 9 10 10 10 11 11 12 12 14 14 13 13 13 13 13 13 13 13 13 13 12
7 7 7 7 7 7 8 8 9 9 9 10 10 10 10 11 12 12 13 13 14 14 14 14 14 14 14 14 14 15 14 13 13
10 9 8 8 8 8 9 9 10 10 10 11 11 11 12 13 13 14 14 14 14 15 14 14 14 14 14 14 14 14 14 14 15
12 11 11 11 11 11 11 10 11 11 12 12 13 13 13 14 14 15 15 16 15 15 15 15 14 14 14 14 14 14 14 15 15
14 13 13 13 13 12 13 12 13 13 13 14 14 14 15 15 16 17 17 17 15 16 16 16 15 15 15 14 15 15 15 16 16
16 15 15 15 15 14 14 14 14 14 15 15 15 16 16 16 17 17 17 17 17 16 16 16 16 16 16 16 16 17 17 17 18
18 18 17 17 16 16 16 16 16 16 16 16 17 17 17 17 17 17 17 17 17 16 16 16 17 17 18 18 18 19 19 19 19
20 19 19 18 18 17 17 17 17 17 17 18 18 17 17 17 17 17 17 17 17 17 17 17 18 18 19 20 20 20 21 21 21
21 21 20 19 19 19 18 18 19 19 19 18 18 18 18 18 17 17 17 17 17 18 18 18 19 20 20 21 22 22 23 23 24
22 21 21 20 20 19 19 19 19 19 19 19 19 19 19 19 18 18 18 18 18 19 19 20 21 21 22 23 24 25 25 26 26
22 22 22 21 20 20 19 19 19 19 19 19 19 20 20 20 18 18 18 18 19 19 20 22 22 23 24 26 27 27 28 29 29
23 23 22 21 20 20 19 19 19 19 19 19 20 20 20 19 19 19 19 20 20 21 22 23 24 26 27 27 28 29 30 31 31
25 24 23 22 21 21 20 19 19 19 19 19 19 19 20 20 20 20 20 21 22 23 24 25 26 28 29 29 30 31 31 32 33
27 25 24 23 22 21 20 20 19 20 20 20 20 20 21 20 20 21 22 22 23 24 25 27 29 30 31 31 32 33 33 34 35
29 27 26 25 24 23 22 21 21 20 21 21 21 20 20 21 22 23 23 24 25 26 28 30 31 32 32 34 34 35 35 35 36
32 30 28 27 26 25 24 23 22 21 21 21 21 22 21 21 22 24 25 26 27 29 31 33 34 34 34 35 35 36 37 38 39
34 31 29 29 29 28 27 25 24 23 22 22 22 22 22 23 24 25 26 28 30 32 33 35 34 35 35 36 36 37 38 39 41
Wind_Direction
259 254 249 246 245 247 249 253 259 263 263 265 266 270 278 286 285 283 289 296 299 298 298 296 296 296 293 290 287 288 290 288 284
254 253 249 248 248 249 251 253 256 261 263 267 271 274 280 286 287 287 292 297 302 300 300 299 297 301 301 287 287 288 287 286 284
252 250 250 251 250 250 252 252 256 262 267 271 275 278 281 282 285 289 292 295 297 298 296 294 296 299 295 296 293 296 300 291 289
250 249 250 253 254 254 255 258 263 267 271 274 277 280 279 279 286 290 292 294 297 297 294 292 291 290 289 289 288 289 290 288 288
251 252 254 254 253 257 261 264 266 271 274 276 280 282 282 282 286 290 293 294 298 296 295 293 291 288 288 287 286 287 287 285 285
250 254 255 256 259 264 267 268 270 273 276 279 280 282 282 284 287 290 291 293 295 295 294 293 292 290 290 289 287 286 285 285 284
252 255 257 258 262 266 269 271 273 275 278 280 281 284 283 285 288 290 291 293 291 293 292 291 291 289 290 290 289 288 287 286 286
251 255 258 260 263 266 269 271 275 278 279 282 283 284 284 285 288 289 290 289 288 291 291 289 288 286 287 288 288 288 288 288 288
253 256 258 261 264 267 269 272 275 278 280 282 284 286 286 286 287 289 290 288 287 288 289 288 286 284 284 286 287 287 288 289 288
254 256 258 261 264 266 270 272 275 279 281 281 283 286 286 287 287 288 289 288 286 287 288 288 287 285 283 284 285 286 287 288 288
253 256 257 260 262 267 269 272 275 278 280 282 283 284 286 286 287 288 289 288 286 286 287 287 288 287 286 285 284 285 286 287 287
251 256 256 259 262 266 269 272 274 277 279 281 281 282 285 285 285 286 288 288 287 287 287 288 288 287 287 286 285 285 285 286 286
252 254 256 258 261 265 270 273 275 276 277 278 280 282 283 284 283 283 286 287 287 287 288 288 289 288 287 287 286 286 285 286 286
252 254 257 256 261 266 268 272 274 276 278 279 280 280 283 283 281 282 284 286 288 288 289 291 290 289 289 288 287 286 285 286 285
251 254 253 255 260 264 268 271 274 276 278 281 282 281 281 282 281 283 283 286 288 289 291 291 291 291 291 289 289 287 286 285 285
250 251 252 255 259 262 266 270 273 276 278 281 284 282 281 280 281 284 285 287 289 291 292 293 293 293 292 291 289 289 287 286 286
247 249 251 253 257 258 263 267 272 276 277 280 282 283 280 279 282 284 286 289 291 292 293 295 295 294 293 292 290 290 288 287 287
246 249 252 253 254 256 261 266 269 273 277 278 279 281 280 282 284 284 286 289 292 293 295 296 296 296 294 292 291 290 289 288 287
247 250 252 252 253 255 260 265 269 268 278 278 278 280 280 282 285 287 287 290 292 294 296 296 296 296 295 294 292 291 289 289 288
247 249 251 252 254 255 258 263 267 269 274 277 279 279 280 282 285 288 291 291 293 296 297 298 297 296 296 296 294 293 291 290 290